Charlotte/Douglas

Airport
ICAO code: 
KCLT
Summary
ICAO Region: 
NAM
Territory: 
Location: 
Charlotte, North Carolina,
Coordinates: 
Aerial View: 
35° 12' 50.403" N, 80° 56' 35.16" W
Airport LOS: 
Parallel Runway Operation
Airport RE: 
Engineered Materials Arresting System
Airport WX: 
Cumulonimbus
Metar
Observation
KCLT 271952Z 21007KT 10SM FEW045 BKN085 BKN170 BKN250 32/20 A3003 RMK SLP158 TCU DSNT ALQDS T03170200
Station
Charlotte, Charlotte / Douglas International Airport
Date/Time
2022-06-27 19:52:00
Wind direction
210°
Wind speed
07 kts
Lowest cloud amount
few clouds
Temperature
31.7°C
Dew point
20°C
Humidity
50%
Weather condition
n/a

Description

International airport serving Charlotte, North Carolina, USA.

Climatology

Humid “subtropical” climate (Köppen climate classification Cfa) - characterized by hot, humid summers and cool winters. Significant amounts of precipitation occur in all seasons in most areas. Winter rainfall (and sometimes snowfall) is associated with large storms that the westerlies steer from west to east. Most summer rainfall occurs during thunderstorms and occasional tropical storms (hurricanes).

Runways

Designator Length Width Surface Rops
5/23 2287 46 PEM Yes/Yes
18L/36R 2644 46 PEM Yes/Yes
18C/36C 3048 46 CONC-F Yes/Yes
18R/36L 3048 46 CON Yes/Yes

SKYbrary Partners:

Safety knowledge contributed by: